KB6VSE Weather Reports


Display with metric or nautical units.
time (UTC)temp
F
wind
direction
speed
MPH
gust
MPH
rain 1hr
in
rain 24hr
in
rain mn
in
humidity
%
barometer
mb
20260504031546 55 0 0.0 0.0 0.00 0.00 0.00 84 1015.2
20260504030050 55 0 0.0 0.0 0.00 0.00 0.00 82 1015.4
20260504024548 55 0 0.0 0.0 0.00 0.00 0.00 82 1015.2
20260504023050 55 0 0.0 0.0 0.00 0.00 0.00 81 1015.1
20260504021550 55 0 0.0 0.0 0.00 0.00 0.00 81 1015.0
20260504020044 56 0 0.0 0.0 0.00 0.00 0.00 82 1014.7
20260504014550 56 0 0.0 0.0 0.00 0.00 0.00 81 1014.5
20260504013050 56 0 0.0 0.0 0.00 0.00 0.00 81 1014.3
20260504011550 56 0 0.0 0.0 0.00 0.00 0.00 81 1014.0
20260504010054 56 0 0.0 0.0 0.00 0.00 0.00 80 1013.9
20260504004548 56 0 0.0 0.0 0.00 0.00 0.00 79 1013.8
20260504003047 57 0 0.0 4.0 0.00 0.00 0.00 80 1013.6
20260504001607 57 0 0.0 1.0 0.00 0.00 0.00 79 1013.4
20260504000049 58 0 0.0 0.0 0.00 0.00 0.00 79 1013.2
20260503234549 58 0 0.0 5.0 0.00 0.00 0.00 78 1013.3
20260503233045 59 0 0.0 3.0 0.00 0.00 0.00 76 1013.0
20260503231545 60 0 0.0 0.0 0.00 0.00 0.00 78 1012.9
20260503230044 60 0 0.0 0.0 0.00 0.00 0.00 76 1012.9
20260503224549 61 0 0.0 0.0 0.00 0.00 0.00 76 1013.0
20260503223051 62 0 0.0 0.0 0.00 0.00 0.00 75 1012.8
20260503221548 61 0 0.0 0.0 0.00 0.00 0.00 76 1012.8
20260503220105 62 0 0.0 0.0 0.00 0.00 0.00 75 1012.7
20260503214546 61 0 0.0 0.0 0.00 0.00 0.00 77 1012.9
20260503213048 60 0 0.0 0.0 0.00 0.00 0.00 76 1012.9
20260503211559 61 0 0.0 0.0 0.00 0.00 0.00 76 1013.2
20260503210042 62 0 0.0 0.0 0.00 0.00 0.00 75 1013.3
20260503204553 62 0 0.0 0.0 0.00 0.00 0.00 75 1013.3
20260503203047 61 0 0.0 1.0 0.00 0.00 0.00 78 1013.1
20260503201547 60 0 0.0 0.0 0.00 0.00 0.00 79 1013.2
20260503200046 61 0 0.0 0.0 0.00 0.00 0.00 80 1013.2
20260503194548 60 0 0.0 1.0 0.00 0.00 0.00 76 1013.1
20260503193049 61 0 0.0 1.0 0.00 0.00 0.00 76 1013.2
20260503191539 60 0 0.0 0.0 0.00 0.00 0.00 79 1013.1
20260503190047 59 0 0.0 0.0 0.00 0.00 0.00 79 1013.2
20260503184548 59 0 0.0 0.0 0.00 0.00 0.00 78 1013.2
20260503183045 58 0 0.0 0.0 0.00 0.00 0.00 80 1013.4
20260503181618 57 0 0.0 0.0 0.00 0.00 0.00 83 1013.4
20260503180104 56 0 0.0 0.0 0.00 0.00 0.00 83 1013.4
20260503174554 56 0 0.0 0.0 0.00 0.00 0.00 83 1013.2
20260503173102 55 0 0.0 0.0 0.00 0.00 0.00 86 1013.3
20260503171545 55 0 0.0 0.0 0.00 0.00 0.00 85 1013.2
20260503081540 51 0 0.0 0.0 0.00 0.00 0.00 88 1012.5
20260503071554 51 0 0.0 0.0 0.00 0.00 0.00 87 1013.0
20260503060111 53 0 0.0 0.0 0.00 0.00 0.00 84 1013.3
20260503054546 54 0 0.0 0.0 0.00 0.00 0.00 83 1013.2
20260503053047 54 0 0.0 0.0 0.00 0.00 0.00 82 1013.2
20260503051542 55 0 0.0 0.0 0.00 0.00 0.00 81 1013.1
20260503050044 55 0 0.0 0.0 0.00 0.00 0.00 81 1013.0
20260503044611 56 0 0.0 0.0 0.00 0.00 0.00 80 1012.8
20260503043045 57 0 0.0 0.0 0.00 0.00 0.00 79 1012.8
20260503041550 57 0 0.0 0.0 0.00 0.00 0.00 78 1012.5
20260503040045 58 0 0.0 0.0 0.00 0.00 0.00 76 1012.4
20260503034548 59 0 0.0 0.0 0.00 0.00 0.00 75 1012.2
20260503033047 60 0 0.0 0.0 0.00 0.00 0.00 72 1012.0